Lake of the Ozarks Weather Center

Moon Phase Calendar



Lake of the Ozarks Water Level
Online Cameras

 


      

Current Conditions in Four Seasons
10/3/2022 6:59:06 AM

50°F
Feels Like 49
Clear
Humidity
85%
Pressure
30.33"
Wind
3.6 mph (E)
Dew Point
46°F
UV Index
0/10 (Low)
Visibility
6 mi

Hourly Forecast

Date & Time Mon, Oct 3
6:00 AM
Mon, Oct 3
7:00 AM
Mon, Oct 3
8:00 AM
Mon, Oct 3
9:00 AM
Mon, Oct 3
10:00 AM
Mon, Oct 3
11:00 AM
Mon, Oct 3
12:00 PM
Mon, Oct 3
1:00 PM
Mon, Oct 3
2:00 PM
Mon, Oct 3
3:00 PM
Mon, Oct 3
4:00 PM
Mon, Oct 3
5:00 PM
Mon, Oct 3
6:00 PM
Mon, Oct 3
7:00 PM
Mon, Oct 3
8:00 PM
Mon, Oct 3
9:00 PM
Mon, Oct 3
10:00 PM
Mon, Oct 3
11:00 PM
Tue, Oct 4
12:00 AM
Tue, Oct 4
1:00 AM
Tue, Oct 4
2:00 AM
Tue, Oct 4
3:00 AM
Tue, Oct 4
4:00 AM
Tue, Oct 4
5:00 AM
Tue, Oct 4
6:00 AM
Tue, Oct 4
7:00 AM
Tue, Oct 4
8:00 AM
Tue, Oct 4
9:00 AM
Tue, Oct 4
10:00 AM
Tue, Oct 4
11:00 AM
Tue, Oct 4
12:00 PM
Tue, Oct 4
1:00 PM
Tue, Oct 4
2:00 PM
Tue, Oct 4
3:00 PM
Tue, Oct 4
4:00 PM
Tue, Oct 4
5:00 PM
Tue, Oct 4
6:00 PM
Tue, Oct 4
7:00 PM
Tue, Oct 4
8:00 PM
Tue, Oct 4
9:00 PM
Tue, Oct 4
10:00 PM
Tue, Oct 4
11:00 PM
Wed, Oct 5
12:00 AM
Wed, Oct 5
1:00 AM
Wed, Oct 5
2:00 AM
Wed, Oct 5
3:00 AM
Wed, Oct 5
4:00 AM
Wed, Oct 5
5:00 AM
Condition
Clear

Clear

Clear

Clear

Clear

Clear

Clear

Clear

Clear

Clear

Clear

Clear

Clear

Clear

Clear

Clear

Clear

Clear

Clear

Clear

Clouds

Clouds

Clouds

Clouds

Clouds

Clouds

Clear

Clear

Clear

Clouds

Clouds

Clouds

Clouds

Clouds

Clouds

Clouds

Clouds

Clouds

Clouds

Clouds

Clouds

Clouds

Clouds

Clouds

Clouds

Clouds

Clouds

Clouds
Temperature 50°F50°F51°F54°F60°F67°F75°F78°F80°F81°F81°F80°F75°F67°F64°F61°F59°F57°F55°F54°F53°F52°F51°F51°F50°F50°F52°F59°F66°F71°F76°F79°F80°F81°F81°F80°F74°F67°F63°F61°F60°F59°F58°F57°F57°F56°F56°F55°F
Feels Like 49°F49°F49°F53°F59°F66°F74°F77°F79°F80°F80°F80°F74°F66°F62°F59°F56°F54°F53°F51°F50°F49°F48°F47°F47°F49°F49°F57°F64°F69°F74°F77°F79°F79°F79°F80°F73°F64°F61°F59°F58°F56°F56°F55°F54°F54°F53°F52°F
Cloudiness 0%0%0%0%0%0%0%0%0%0%0%0%0%0%0%0%0%1%2%9%87%73%51%40%33%29%7%7%7%14%18%20%55%64%63%51%46%45%33%29%37%52%62%68%100%100%99%93%
Visibility 6 mi6 mi6 mi6 mi6 mi6 mi6 mi6 mi6 mi6 mi6 mi6 mi6 mi6 mi6 mi6 mi6 mi6 mi6 mi6 mi6 mi6 mi6 mi6 mi6 mi6 mi6 mi6 mi6 mi6 mi6 mi6 mi6 mi6 mi6 mi6 mi6 mi6 mi6 mi6 mi6 mi6 mi6 mi6 mi6 mi6 mi6 mi6 mi
Precipitation 0%0%0%0%0%0%0%0%0%0%0%0%0%0%0%0%0%0%0%0%0%0%0%0%0%0%0%0%0%0%0%0%0%0%0%0%0%0%0%0%0%0%0%0%0%0%0%0%
Humidity 82%85%82%73%62%50%37%33%30%29%28%29%39%45%47%45%44%43%42%41%40%41%42%43%45%49%51%42%36%30%26%23%22%21%21%21%30%34%37%40%43%45%46%47%47%46%46%47%
Dew Point 45°F46°F45°F46°F47°F48°F47°F47°F46°F45°F45°F44°F48°F45°F43°F39°F37°F34°F32°F31°F29°F29°F29°F29°F30°F31°F34°F36°F38°F38°F38°F38°F38°F38°F37°F36°F41°F37°F36°F36°F37°F37°F37°F37°F36°F35°F35°F35°F
Pressure 30.33"30.33"30.33"30.33"30.3"30.27"30.27"30.24"30.21"30.15"30.15"30.12"30.12"30.15"30.15"30.18"30.18"30.18"30.21"30.21"30.21"30.18"30.18"30.18"30.18"30.18"30.21"30.21"30.21"30.18"30.18"30.15"30.09"30.06"30.03"30.03"30.03"30.06"30.06"30.06"30.09"30.09"30.09"30.09"30.09"30.09"30.06"30.06"
Wind Speed 3.4 mph3.6 mph3.2 mph3.9 mph4.3 mph4.5 mph4.3 mph4.5 mph4.5 mph4.4 mph5.1 mph5.6 mph4.7 mph5.5 mph5.9 mph5.8 mph5.7 mph5.4 mph4.8 mph4.7 mph4.8 mph4.3 mph3.6 mph3.6 mph3.6 mph3.5 mph4 mph4.9 mph5 mph4.7 mph4.6 mph4.2 mph4.9 mph5.1 mph5.4 mph5.8 mph4.7 mph5 mph5.1 mph5.2 mph5.2 mph5 mph5.1 mph5.1 mph5 mph4.9 mph4.8 mph4.4 mph
Wind
Direction
99°
E
98°
E
103°
ESE
113°
ESE
114°
ESE
105°
ESE
99°
E
91°
E
84°
E
81°
E
80°
E
81°
E
79°
E
88°
E
97°
E
108°
ESE
116°
ESE
122°
ESE
123°
ESE
122°
ESE
126°
SE
132°
SE
142°
SE
143°
SE
137°
SE
134°
SE
134°
SE
149°
SSE
161°
SSE
158°
SSE
152°
SSE
145°
SE
133°
SE
127°
SE
130°
SE
136°
SE
134°
SE
139°
SE
139°
SE
137°
SE
147°
SSE
157°
SSE
156°
SSE
155°
SSE
171°
S
161°
SSE
157°
SSE
185°
S

Daily Forecast

Date High Low Precip. Humidity
Today
Oct 3

Clear
81 °F
50 °F
0%
33%
Tuesday
Oct 4

Clouds
81 °F
50 °F
0%
26%
Wednesday
Oct 5

Clouds
86 °F
54 °F
0%
24%
Thursday
Oct 6

Clear
84 °F
57 °F
0%
28%
Friday
Oct 7

Clear
65 °F
46 °F
0%
28%
Saturday
Oct 8

Clear
67 °F
39 °F
0%
20%
Sunday
Oct 9

Clear
80 °F
46 °F
0%
28%
Monday
Oct 10

Clear
84 °F
61 °F
10%
27%
Tuesday
Oct 11

Clear
89 °F
55 °F
0%
21%
Wednesday
Oct 12

Rain
88 °F
64 °F
61%
40%
Thursday
Oct 13

Clear
75 °F
48 °F
45%
14%
Friday
Oct 14

Clear
83 °F
49 °F
0%
17%
Saturday
Oct 15

Rain
67 °F
53 °F
93%
65%
Sunday
Oct 16

Rain
57 °F
51 °F
100%
94%
Monday
Oct 17

Rain
74 °F
54 °F
30%
55%
Tuesday
Oct 18

Rain
79 °F
54 °F
35%
47%

Temperature 8-14 Day Outlook



Precipitation 8-14 Day Outlook






About Us
Contact Us
Site Map
Search Site
Advertise With Us
   
Ozarks.USLakes.info
THE LAKE OF THE OZARKS WEBSITE

Copyright 2022, Lakes Online
Privacy    |    Legal